GW3795 Weather Reports


time (UTC)temp
C
wind
direction
speed
KPH
gust
KPH
rain 1hr
cm
rain 24hr
cm
rain mn
cm
humidity
%
barometer
mb
20260505073020 20 251 8.0 11.3 0.00 0.00 0.00 51 1007.7
20260505072515 20 248 9.7 14.5 0.00 0.00 0.00 51 1007.6
20260505072011 20 264 4.8 17.7 0.00 0.00 0.00 51 1007.4
20260505071507 20 307 6.4 14.5 0.00 0.00 0.00 51 1007.3
20260505071005 20 226 4.8 9.7 0.00 0.00 0.00 51 1007.6
20260505070502 20 285 3.2 17.7 0.00 0.00 0.00 51 1007.5
20260505065957 20 250 19.3 22.5 0.00 0.00 0.00 51 1007.4
20260505065454 20 266 6.4 17.7 0.00 0.00 0.00 51 1007.6
20260505064951 20 256 6.4 11.3 0.00 0.00 0.00 51 1007.2
20260505064448 20 278 3.2 11.3 0.00 0.00 0.00 51 1007.4
20260505063946 20 261 6.4 12.9 0.00 0.00 0.00 50 1007.6
20260505063442 20 266 4.8 8.0 0.00 0.00 0.00 50 1007.6
20260505062939 20 241 8.0 12.9 0.00 0.00 0.00 50 1007.6
20260505062436 20 249 11.3 19.3 0.00 0.00 0.00 50 1007.6
20260505061933 20 267 9.7 11.3 0.00 0.00 0.00 51 1007.6
20260505061431 20 218 3.2 9.7 0.00 0.00 0.00 51 1007.7
20260505060928 20 184 3.2 14.5 0.00 0.00 0.00 51 1007.4
20260505060425 20 252 6.4 11.3 0.00 0.00 0.00 50 1007.2
20260505055921 20 262 8.0 9.7 0.00 0.00 0.00 50 1007.5
20260505055418 20 298 6.4 14.5 0.00 0.00 0.00 50 1007.3
20260505054914 20 245 6.4 14.5 0.00 0.00 0.00 50 1007.1
20260505054412 20 278 4.8 9.7 0.00 0.00 0.00 50 1007.1
20260505053910 20 218 3.2 9.7 0.00 0.00 0.00 50 1006.9
20260505053406 20 257 6.4 11.3 0.00 0.00 0.00 50 1007.0
20260505052903 20 278 8.0 12.9 0.00 0.00 0.00 49 1006.9
20260505052400 20 305 1.6 8.0 0.00 0.00 0.00 50 1007.1
20260505051857 20 273 6.4 9.7 0.00 0.00 0.00 49 1006.7
20260505051354 20 254 12.9 12.9 0.00 0.00 0.00 49 1006.9
20260505050852 21 277 6.4 9.7 0.00 0.00 0.00 49 1007.2
20260505050351 21 235 4.8 6.4 0.00 0.00 0.00 49 1007.2
20260505041318 21 267 6.4 11.3 0.00 0.00 0.00 50 1007.5
20260505040815 21 255 6.4 14.5 0.00 0.00 0.00 50 1007.7
20260505040313 21 215 3.2 12.9 0.00 0.00 0.00 50 1007.7
20260505035809 21 321 0.0 12.9 0.00 0.00 0.00 50 1007.6
20260505035305 21 237 9.7 14.5 0.00 0.00 0.00 50 1007.6
20260505034802 21 265 3.2 12.9 0.00 0.00 0.00 50 1007.7
20260505034259 21 261 9.7 9.7 0.00 0.00 0.00 50 1007.6
20260505033756 21 328 3.2 4.8 0.00 0.00 0.00 51 1007.5
20260505033253 20 268 4.8 9.7 0.00 0.00 0.00 51 1007.8
20260505032751 20 232 3.2 9.7 0.00 0.00 0.00 52 1007.8
20260505032247 20 247 4.8 12.9 0.00 0.00 0.00 52 1007.5
20260505031744 20 148 3.2 9.7 0.00 0.00 0.00 52 1007.6
20260505031240 20 256 4.8 9.7 0.00 0.00 0.00 53 1007.7
20260505030738 20 304 4.8 6.4 0.00 0.00 0.00 53 1007.6
20260505030234 20 279 0.0 1.6 0.00 0.00 0.00 54 1007.6
20260505025729 20 64 1.6 3.2 0.00 0.00 0.00 54 1007.3
20260505025228 20 312 1.6 3.2 0.00 0.00 0.00 54 1007.4
20260505024726 20 46 0.0 1.6 0.00 0.00 0.00 54 1007.4
20260505024223 20 292 3.2 3.2 0.00 0.00 0.00 54 1007.3
20260505023720 20 81 0.0 0.0 0.00 0.00 0.00 54 1007.2
20260505023217 20 2 1.6 3.2 0.00 0.00 0.00 55 1007.2
20260505022715 20 268 0.0 6.4 0.00 0.00 0.00 55 1007.2
20260505022211 20 173 0.0 1.6 0.00 0.00 0.00 55 1007.0
20260505021708 20 47 0.0 1.6 0.00 0.00 0.00 54 1007.0
20260505021205 20 257 0.0 4.8 0.00 0.00 0.00 55 1007.0
20260505020701 20 103 0.0 1.6 0.00 0.00 0.00 54 1006.6
20260505020156 20 39 0.0 0.0 0.00 0.00 0.00 54 1006.9
20260505015654 20 270 3.2 6.4 0.00 0.00 0.00 54 1006.5
20260505015150 21 299 0.0 3.2 0.00 0.00 0.00 54 1006.4
20260505014648 21 15 0.0 4.8 0.00 0.00 0.00 53 1006.4
20260505014145 21 100 0.0 1.6 0.00 0.00 0.00 53 1006.4
20260505013642 21 2 0.0 3.2 0.00 0.00 0.00 52 1006.5
20260505013139 21 22 0.0 0.0 0.00 0.00 0.00 52 1006.4
20260505012637 21 328 0.0 1.6 0.00 0.00 0.00 52 1006.2
20260505012134 21 90 0.0 3.2 0.00 0.00 0.00 51 1006.2
20260505011629 21 148 0.0 4.8 0.00 0.00 0.00 51 1006.3
20260505011128 21 10 0.0 1.6 0.00 0.00 0.00 50 1006.1
20260505010627 22 263 3.2 4.8 0.00 0.00 0.00 49 1006.1
20260505010124 22 49 0.0 4.8 0.00 0.00 0.00 49 1006.3
20260505005620 22 203 1.6 3.2 0.00 0.00 0.00 48 1006.2
20260505005118 22 196 0.0 1.6 0.00 0.00 0.00 48 1006.2
20260505004615 22 256 0.0 3.2 0.00 0.00 0.00 47 1006.2
20260505004112 22 262 3.2 3.2 0.00 0.00 0.00 47 1006.3
20260505003609 22 294 0.0 3.2 0.00 0.00 0.00 46 1006.2
20260505003106 22 254 1.6 8.0 0.00 0.00 0.00 46 1006.1
20260505002601 22 253 1.6 3.2 0.00 0.00 0.00 45 1006.1
20260505002101 23 259 6.4 8.0 0.00 0.00 0.00 45 1006.1
20260505001557 23 106 1.6 6.4 0.00 0.00 0.00 44 1006.2
20260505001054 23 230 0.0 4.8 0.00 0.00 0.00 44 1006.4
20260505000552 23 227 0.0 8.0 0.00 0.00 0.00 43 1006.4
20260505000049 23 279 3.2 3.2 0.00 0.00 0.00 43 1006.3
20260504235546 23 243 1.6 4.8 0.00 0.00 0.00 43 1006.5
20260504235043 23 281 9.7 9.7 0.00 0.00 0.00 42 1006.6
20260504234539 24 253 6.4 14.5 0.00 0.00 0.00 41 1006.6
20260504234037 24 312 1.6 8.0 0.00 0.00 0.00 41 1006.7
20260504233532 24 328 3.2 14.5 0.00 0.00 0.00 41 1007.0
20260504233029 24 227 4.8 17.7 0.00 0.00 0.00 40 1006.9
20260504232526 25 312 6.4 17.7 0.00 0.00 0.00 40 1007.0
20260504232024 25 6 3.2 16.1 0.00 0.00 0.00 39 1007.2
20260504231520 25 249 6.4 17.7 0.00 0.00 0.00 38 1007.0
20260504231016 25 251 14.5 16.1 0.00 0.00 0.00 38 1007.2
20260504230513 25 252 12.9 14.5 0.00 0.00 0.00 38 1007.0
20260504230012 25 237 11.3 17.7 0.00 0.00 0.00 38 1007.0
20260504225508 25 320 0.0 11.3 0.00 0.00 0.00 39 1007.2
20260504225005 25 258 12.9 16.1 0.00 0.00 0.00 38 1007.3
20260504224502 25 281 8.0 17.7 0.00 0.00 0.00 38 1007.2
20260504223959 25 271 8.0 14.5 0.00 0.00 0.00 38 1007.1
20260504223455 25 167 4.8 9.7 0.00 0.00 0.00 38 1007.2
20260504222951 25 256 9.7 19.3 0.00 0.00 0.00 38 1007.2
20260504222449 25 256 17.7 27.4 0.00 0.00 0.00 37 1007.1
20260504221946 25 248 19.3 20.9 0.00 0.00 0.00 38 1007.1
20260504221443 25 244 12.9 14.5 0.00 0.00 0.00 41 1007.1
20260504220940 25 316 1.6 8.0 0.00 0.00 0.00 43 1007.0
20260504220436 25 249 6.4 6.4 0.00 0.00 0.00 44 1007.1
20260504215934 25 191 3.2 6.4 0.00 0.00 0.00 43 1007.1
20260504215430 25 173 3.2 3.2 0.00 0.00 0.00 43 1007.3
20260504214927 25 180 0.0 4.8 0.00 0.00 0.00 43 1007.4
20260504214423 25 176 3.2 3.2 0.00 0.00 0.00 42 1007.5
20260504213920 25 134 3.2 6.4 0.00 0.00 0.00 42 1007.5
20260504213416 25 220 0.0 8.0 0.00 0.00 0.00 42 1007.5
20260504212914 25 260 1.6 6.4 0.00 0.00 0.00 40 1007.7
20260504212409 25 286 3.2 8.0 0.00 0.00 0.00 41 1007.8
20260504211907 25 93 3.2 4.8 0.00 0.00 0.00 40 1007.9
20260504211403 25 262 3.2 12.9 0.00 0.00 0.00 40 1008.0
20260504210900 25 292 1.6 9.7 0.00 0.00 0.00 39 1008.0
20260504210357 25 249 6.4 12.9 0.00 0.00 0.00 38 1008.0
20260504205854 25 193 3.2 17.7 0.00 0.00 0.00 39 1008.0
20260504205352 25 301 3.2 17.7 0.00 0.00 0.00 38 1008.3
20260504204850 25 250 8.0 19.3 0.00 0.00 0.00 37 1007.9
20260504204348 25 337 4.8 17.7 0.00 0.00 0.00 39 1008.3
20260504203848 25 184 3.2 6.4 0.00 0.00 0.00 41 1008.3
20260504203344 25 290 3.2 17.7 0.00 0.00 0.00 39 1008.2
20260504202840 25 244 6.4 20.9 0.00 0.00 0.00 43 1008.2
20260504202337 25 233 3.2 14.5 0.00 0.00 0.00 43 1008.3
20260504201833 24 221 6.4 16.1 0.00 0.00 0.00 43 1008.4
20260504201331 24 269 16.1 20.9 0.00 0.00 0.00 43 1008.5
20260504200828 24 336 9.7 20.9 0.00 0.00 0.00 43 1008.8
20260504200325 25 291 11.3 14.5 0.00 0.00 0.00 42 1008.7
20260504195821 24 349 0.0 9.7 0.00 0.00 0.00 43 1008.7
20260504195317 23 259 8.0 12.9 0.00 0.00 0.00 44 1008.8
20260504194814 23 231 3.2 17.7 0.00 0.00 0.00 44 1009.0
20260504194310 23 236 8.0 16.1 0.00 0.00 0.00 43 1009.2
20260504193806 23 256 8.0 16.1 0.00 0.00 0.00 44 1009.3
20260504193304 23 243 12.9 17.7 0.00 0.00 0.00 44 1009.1
20260504192802 23 299 11.3 20.9 0.00 0.00 0.00 44 1009.3
20260504192300 23 313 6.4 17.7 0.00 0.00 0.00 46 1009.4
20260504191758 23 320 6.4 14.5 0.00 0.00 0.00 46 1009.5
20260504191255 23 306 9.7 14.5 0.00 0.00 0.00 48 1009.4
20260504190750 23 243 11.3 11.3 0.00 0.00 0.00 48 1009.5
20260504190247 23 332 9.7 11.3 0.00 0.00 0.00 49 1009.6
20260504185743 23 270 9.7 14.5 0.00 0.00 0.00 49 1009.7
20260504185241 22 262 4.8 8.0 0.00 0.00 0.00 51 1009.7
20260504184737 22 314 6.4 14.5 0.00 0.00 0.00 51 1010.1
20260504184232 21 263 4.8 12.9 0.00 0.00 0.00 52 1009.8
20260504183728 21 265 9.7 16.1 0.00 0.00 0.00 52 1009.8
20260504183226 21 254 6.4 9.7 0.00 0.00 0.00 52 1009.8
20260504182724 22 259 12.9 17.7 0.00 0.00 0.00 51 1009.9
20260504182221 21 342 3.2 12.9 0.00 0.00 0.00 52 1009.8
20260504181718 21 265 11.3 12.9 0.00 0.00 0.00 52 1009.8
20260504181215 21 348 8.0 9.7 0.00 0.00 0.00 51 1009.7
20260504180714 21 152 6.4 14.5 0.00 0.00 0.00 51 1009.7
20260504180213 21 303 9.7 24.1 0.00 0.00 0.00 51 1009.6
20260504175710 21 339 4.8 27.4 0.00 0.00 0.00 51 1009.5
20260504175206 21 276 11.3 16.1 0.00 0.00 0.00 50 1009.3
20260504174704 21 274 9.7 22.5 0.00 0.00 0.00 51 1009.4
20260504174202 21 265 12.9 17.7 0.00 0.00 0.00 49 1009.6
20260504173658 21 129 3.2 14.5 0.00 0.00 0.00 50 1009.3
20260504173155 21 254 9.7 12.9 0.00 0.00 0.00 49 1009.3
20260504172652 21 195 1.6 24.1 0.00 0.00 0.00 50 1009.3
20260504172148 21 263 9.7 17.7 0.00 0.00 0.00 51 1009.5
20260504171644 21 198 3.2 16.1 0.00 0.00 0.00 53 1009.6
20260504171142 21 254 14.5 24.1 0.00 0.00 0.00 51 1009.5
20260504170638 21 255 3.2 16.1 0.00 0.00 0.00 52 1009.1
20260504170136 21 232 3.2 6.4 0.00 0.00 0.00 53 1008.9
20260504151027 18 243 3.2 8.0 0.00 0.00 0.00 56 1010.1
20260504150525 18 262 6.4 6.4 0.00 0.00 0.00 57 1010.0
20260504140950 17 69 3.2 8.0 0.00 0.00 0.00 57 1010.1
20260504140447 16 231 3.2 11.3 0.00 0.00 0.00 58 1010.2
20260504130412 14 141 4.8 4.8 0.00 0.00 0.00 63 1010.7
20260504110259 12 251 1.6 9.7 0.00 0.00 0.00 60 1010.6
20260504100222 12 271 0.0 3.2 0.00 0.00 0.00 59 1010.9
20260504081615 11 14 4.8 8.0 0.00 0.00 0.00 63 1011.5
20260504081111 11 352 0.0 4.8 0.00 0.00 0.00 62 1011.6
20260504080608 11 340 1.6 4.8 0.00 0.00 0.00 61 1011.8
20260504080105 11 2 0.0 8.0 0.00 0.00 0.00 61 1011.4